Temperature
16 15 14 15 15 13 14 16 17 17 17 18 17 16 14 12 10 9 8 8 8 8 8 7 7 7 6 6 5 5 5 4 4 4 4 4 4 3 3 3 2 2 2 2
14 13 13 13 14 14 14 15 16 16 16 17 15 14 12 11 9 8 8 7 8 8 7 7 6 6 6 5 5 4 4 4 4 4 3 3 3 3 3 2 2 1 1 0
15 12 12 13 14 14 14 14 15 15 16 15 12 11 11 10 9 8 8 7 7 7 7 6 6 5 5 4 4 4 4 4 3 3 3 3 2 2 1 1 1 0 -0 -1
13 12 12 16 14 14 14 15 14 14 13 12 12 10 9 9 8 8 7 7 7 6 6 5 5 4 4 4 4 3 3 3 3 2 2 2 1 1 0 -0 -1 -1 -1 -2
12 13 14 15 12 12 12 13 14 13 12 10 8 8 8 7 7 7 7 7 6 6 5 5 4 4 4 3 3 3 3 2 2 2 1 1 0 -0 -1 -1 -2 -2 -2 -3
11 11 12 15 12 10 12 13 12 11 10 8 8 10 10 7 7 7 7 6 6 5 4 4 3 3 3 3 2 2 2 2 1 1 0 -0 -1 -1 -2 -2 -3 -3 -3 -4
11 11 14 13 9 10 12 14 10 9 9 8 9 10 8 7 6 6 6 5 5 4 4 3 3 3 2 2 2 1 1 1 1 0 -0 -1 -1 -2 -3 -3 -4 -4 -5 -5
11 11 12 10 9 11 13 9 8 8 8 7 7 7 7 6 6 5 5 4 4 4 3 3 3 2 2 2 1 1 1 0 -0 -0 -1 -1 -2 -3 -3 -4 -4 -5 -5 -5
12 13 11 9 10 10 9 8 8 7 7 7 7 6 6 5 5 4 4 4 3 3 3 3 2 2 1 1 0 0 -0 -0 -1 -1 -2 -2 -3 -4 -4 -4 -5 -6 -6 -6
10 10 8 7 7 8 8 8 8 8 7 7 7 6 5 4 4 4 3 3 3 3 2 2 2 1 1 0 -0 -1 -1 -1 -2 -2 -2 -3 -4 -4 -5 -5 -6 -6 -6 -6
9 9 7 6 7 7 8 8 7 7 7 6 6 5 4 4 4 3 3 3 2 2 2 2 1 1 1 -0 -1 -1 -2 -2 -3 -3 -3 -4 -4 -5 -5 -6 -6 -7 -7 -7
11 10 9 8 8 7 7 7 7 6 6 5 5 4 4 3 3 3 3 2 2 2 1 1 0 0 -0 -1 -1 -2 -2 -3 -3 -4 -4 -4 -5 -5 -5 -6 -6 -7 -7 -7
8 8 7 7 7 7 6 6 6 5 5 4 4 3 3 3 3 2 2 2 1 1 1 0 -0 -0 -1 -1 -2 -2 -3 -3 -4 -4 -5 -5 -6 -6 -7 -6 -7 -7 -7 -7
7 7 6 6 6 6 5 5 5 4 4 3 3 3 3 2 2 2 2 1 1 0 0 -0 -1 -1 -1 -2 -2 -3 -3 -4 -4 -5 -5 -6 -6 -7 -7 -7 -7 -7 -7 -7
5 6 6 5 5 5 4 4 4 3 3 3 3 2 2 2 2 1 1 1 0 -0 -0 -1 -1 -1 -2 -2 -3 -3 -4 -4 -4 -5 -6 -6 -7 -7 -8 -8 -8 -8 -8 -8
4 4 4 4 4 4 3 3 3 3 2 2 2 2 2 1 1 1 0 -0 -1 -1 -1 -1 -1 -2 -2 -3 -3 -4 -4 -4 -5 -6 -6 -7 -7 -8 -8 -8 -8 -8 -8 -8
3 2 3 3 3 3 3 3 3 2 2 2 2 1 1 1 0 0 -0 -1 -1 -1 -1 -2 -2 -2 -3 -3 -4 -4 -5 -5 -5 -6 -7 -7 -8 -8 -8 -8 -8 -8 -8 -9
4 4 4 3 3 2 2 2 2 2 2 1 1 1 0 -0 -0 -1 -1 -1 -1 -1 -1 -2 -3 -3 -3 -4 -5 -5 -5 -6 -6 -7 -7 -7 -8 -8 -8 -9 -9 -9 -9 -9
2 3 3 2 2 2 2 2 1 1 1 1 0 -0 -0 -1 -1 -1 -2 -2 -2 -2 -2 -3 -3 -4 -4 -4 -5 -5 -6 -6 -7 -7 -7 -8 -8 -8 -9 -9 -9 -9 -9 -9
2 2 2 2 2 1 1 1 1 1 0 -0 -1 -1 -1 -1 -1 -2 -2 -2 -2 -3 -3 -4 -4 -4 -5 -5 -6 -6 -6 -7 -7 -7 -8 -8 -8 -9 -9 -9 -9 -10 -10 -9
1 1 1 1 1 1 1 0 0 -0 -0 -1 -1 -1 -2 -2 -2 -2 -3 -3 -3 -3 -4 -4 -5 -5 -6 -6 -6 -7 -7 -7 -7 -8 -8 -9 -9 -9 -10 -10 -10 -10 -10 -10
1 1 1 0 0 0 -0 -0 -1 -1 -1 -1 -2 -2 -2 -2 -3 -3 -3 -4 -4 -4 -5 -5 -6 -6 -6 -7 -7 -7 -7 -8 -8 -8 -9 -9 -9 -10 -10 -10 -10 -10 -10 -10
0 0 -0 -0 -0 -1 -1 -1 -1 -2 -2 -2 -2 -2 -3 -3 -4 -4 -4 -4 -5 -5 -6 -6 -6 -7 -7 -7 -8 -8 -8 -8 -9 -9 -9 -10 -10 -10 -10 -10 -10 -10 -10 -10
-0 -0 -1 -1 -1 -1 -1 -1 -2 -2 -2 -2 -3 -3 -3 -4 -4 -4 -5 -5 -5 -6 -6 -6 -7 -7 -8 -8 -8 -8 -9 -9 -9 -10 -10 -10 -10 -10 -10 -10 -10 -10 -10 -10
-1 -1 -1 -1 -2 -2 -2 -2 -2 -2 -3 -3 -3 -4 -4 -5 -5 -5 -6 -6 -6 -7 -7 -7 -7 -8 -8 -8 -9 -9 -9 -10 -10 -10 -10 -10 -11 -11 -11 -11 -10 -10 -10 -10
-1 -2 -2 -2 -2 -2 -3 -3 -3 -3 -4 -4 -4 -5 -5 -5 -6 -6 -6 -7 -7 -8 -8 -8 -8 -8 -9 -9 -9 -10 -10 -10 -10 -10 -11 -11 -11 -11 -11 -11 -10 -10 -10 -10
-2 -2 -2 -2 -3 -3 -3 -4 -4 -4 -5 -5 -6 -6 -6 -6 -7 -7 -8 -8 -8 -9 -9 -9 -9 -9 -10 -10 -10 -10 -11 -11 -11 -11 -11 -11 -11 -11 -11 -11 -11 -10 -10 -10
Wind_Speed
8 2 5 8 10 14 16 17 15 17 18 17 12 12 11 12 12 11 11 10 9 7 5 3 1 1 2 3 4 6 7 8 9 10 11 12 12 13 14 14 15 16 17 17
6 4 6 8 13 16 18 18 21 22 23 14 7 7 10 12 13 13 12 10 8 6 4 2 2 2 3 5 6 7 9 10 10 11 11 12 13 14 15 16 16 16 17 18
8 4 3 11 16 18 14 15 15 20 18 7 7 10 12 12 13 12 11 9 7 5 3 2 2 3 5 6 7 8 10 10 11 11 12 13 14 15 16 17 17 18 18 18
5 5 12 9 3 10 15 18 17 16 9 7 7 6 7 9 11 11 9 7 6 4 3 2 3 4 6 7 8 9 10 11 11 12 13 14 16 17 17 17 17 17 18 19
6 10 14 8 5 8 10 12 12 15 11 7 8 7 5 6 8 8 7 5 4 3 2 3 4 5 7 8 9 10 11 12 13 13 14 15 17 18 17 17 18 18 18 19
7 8 11 6 4 5 4 9 7 10 11 12 12 9 7 9 8 7 6 5 3 2 2 4 5 5 8 9 10 12 12 13 14 14 15 17 18 18 17 17 18 18 18 18
14 13 12 2 7 9 7 5 5 9 12 14 11 4 8 11 8 7 6 4 3 2 3 5 5 6 9 11 12 12 13 14 15 15 16 17 17 17 17 17 18 18 19 18
10 12 12 8 11 10 4 3 7 10 11 11 8 8 9 9 7 6 5 3 2 3 5 6 6 8 10 12 13 13 14 15 15 16 15 14 16 17 17 17 18 17 17 17
11 9 1 9 7 2 3 6 7 9 10 10 9 8 8 7 6 5 4 3 3 5 7 8 8 9 12 13 13 14 15 16 16 16 15 15 16 17 16 15 14 15 15 15
7 7 4 5 4 3 5 6 7 9 10 9 8 8 7 6 5 4 3 3 4 6 8 10 10 10 12 13 13 14 15 16 15 15 16 15 13 13 13 14 14 14 15 16
8 4 3 6 8 7 7 8 9 8 7 8 9 8 7 5 4 3 4 4 5 7 9 12 12 13 13 13 13 14 16 15 15 14 15 15 14 13 14 15 15 17 16 16
9 7 7 5 7 10 11 10 10 9 8 7 7 7 5 4 3 4 5 5 7 9 11 12 13 14 14 14 13 14 14 14 13 12 13 13 14 15 15 18 23 25 25 24
2 3 3 4 7 9 9 9 9 9 9 8 6 5 4 3 3 4 6 7 9 10 12 13 14 15 15 14 13 14 14 14 12 12 13 13 14 15 16 17 19 22 24 25
5 6 5 6 7 8 9 9 9 8 6 6 5 3 3 3 5 6 8 9 10 11 13 14 15 16 15 14 13 14 14 14 13 12 13 13 14 14 15 16 17 15 17 22
6 5 5 7 9 9 9 9 9 7 6 4 3 3 4 5 7 8 9 9 10 12 14 14 15 16 15 13 13 14 13 11 11 12 13 13 14 14 15 16 16 16 16 16
7 7 9 11 11 10 9 9 8 7 5 4 3 4 5 6 8 9 10 10 11 14 14 15 16 16 14 13 13 12 12 15 15 13 13 13 13 14 14 15 16 15 15 15
11 10 10 10 10 10 8 7 6 5 4 4 4 5 6 7 9 10 11 11 12 13 14 15 16 15 14 13 13 11 12 13 16 14 12 13 13 14 14 15 15 15 15 16
8 9 10 11 10 9 7 6 5 4 4 4 4 5 7 9 11 12 12 12 13 15 15 14 14 14 14 13 12 11 12 12 12 12 13 13 14 14 15 15 15 17 15 16
8 8 8 8 8 7 6 5 4 3 4 4 6 8 9 10 11 12 12 13 14 16 14 12 15 15 15 14 14 12 12 13 13 13 13 16 16 14 14 14 15 15 15 14
8 8 8 7 5 4 4 3 3 4 5 5 7 9 10 11 11 12 12 13 12 12 13 15 15 14 14 14 15 12 13 14 14 14 14 14 14 14 14 15 15 15 14 14
8 7 6 5 3 3 3 3 4 6 6 6 8 10 11 12 12 11 12 13 13 12 13 16 13 12 12 13 16 13 13 13 14 14 14 14 14 15 14 15 14 14 14 14
5 4 3 2 2 3 3 4 5 7 8 8 9 10 11 12 13 12 12 12 14 14 13 12 12 14 16 19 13 13 13 14 14 13 13 13 14 14 14 15 14 14 14 13
3 2 2 3 3 4 5 6 7 7 9 10 10 11 12 12 11 11 13 11 11 15 14 13 16 21 23 16 13 13 14 14 13 13 13 13 13 14 14 15 14 14 13 13
2 2 3 3 3 5 7 8 8 8 9 10 11 11 11 11 11 10 11 15 17 19 14 16 21 23 22 13 13 13 13 13 13 13 13 13 13 13 13 14 14 13 13 15
3 3 4 4 5 6 8 9 9 9 10 9 11 11 10 9 11 12 12 14 17 18 15 17 20 21 16 12 13 13 12 13 13 13 13 13 13 13 13 13 13 13 13 13
4 4 5 6 6 7 7 7 8 9 9 10 11 10 10 9 11 12 12 14 16 18 15 13 14 14 12 12 13 13 13 13 14 13 13 13 14 14 13 13 15 13 13 12
5 5 5 6 6 6 7 7 9 10 10 10 12 12 11 11 11 12 14 13 14 13 13 13 12 12 12 12 13 13 13 12 12 12 13 13 13 13 13 15 13 12 12 12
Wind_Direction
250 226 186 210 207 201 213 232 248 258 260 262 249 228 210 192 180 173 170 170 170 170 169 172 202 269 301 308 311 310 306 304 304 305 304 302 301 300 300 298 295 294 292 291
234 218 223 240 235 224 227 239 248 260 266 272 261 219 200 190 182 180 177 174 171 170 177 200 253 287 297 301 304 303 300 300 302 301 300 300 300 301 300 298 296 295 293 292
243 192 232 250 237 228 226 227 237 250 261 239 202 201 198 189 183 181 176 172 172 177 190 222 262 284 291 297 299 298 297 297 298 299 299 300 301 300 300 299 299 297 295 293
224 191 240 255 189 224 234 243 237 245 250 207 204 181 181 181 178 173 168 167 171 179 200 234 265 281 288 291 293 294 296 298 300 300 299 301 301 301 301 301 299 298 297 296
201 240 260 257 211 195 213 248 234 232 229 189 147 140 162 172 172 165 161 161 165 180 213 250 273 284 288 289 292 294 297 300 302 302 300 301 301 302 303 302 300 299 298 297
203 230 248 248 157 161 183 259 217 205 191 166 162 184 181 162 155 148 146 151 163 185 233 262 277 287 287 291 295 298 301 302 302 301 300 299 300 302 302 300 299 299 296 296
223 237 256 209 142 155 210 269 150 177 172 169 179 171 133 144 147 150 153 159 175 222 255 271 284 287 287 293 297 302 302 300 299 299 300 300 300 300 301 300 298 297 297 297
213 230 244 160 159 195 231 107 157 164 166 165 145 122 132 143 147 154 163 179 213 254 273 282 286 286 289 295 302 304 302 299 299 300 301 299 299 300 301 300 300 300 300 300
205 224 285 165 190 198 144 164 166 163 160 153 147 150 150 155 160 169 186 211 244 268 282 288 290 291 292 300 305 304 301 299 300 302 301 300 300 301 302 301 300 301 301 301
222 237 217 208 211 195 181 171 157 152 150 154 153 155 158 162 172 189 213 242 262 276 286 293 300 299 295 300 303 301 299 301 302 302 302 302 300 297 298 299 299 299 300 300
230 233 214 221 211 187 160 145 138 134 141 149 149 157 166 175 192 216 243 260 270 278 287 294 301 301 301 302 302 300 300 300 301 301 300 301 299 296 295 292 290 295 296 297
227 206 199 204 185 172 159 155 150 140 137 143 154 160 170 192 216 242 262 274 279 284 289 295 300 300 302 303 301 299 299 300 301 301 301 300 301 301 290 287 293 293 292 293
210 146 160 138 152 162 160 152 149 148 149 151 156 165 183 217 243 261 272 279 284 290 294 297 299 299 301 303 300 295 294 296 297 298 299 300 301 302 304 302 297 296 296 298
160 140 144 157 158 152 144 140 137 135 143 152 160 175 205 242 264 272 278 285 291 294 294 295 296 296 300 302 298 293 292 292 292 294 297 298 298 299 300 303 306 305 303 302
183 179 155 140 137 136 135 138 141 148 154 162 176 203 230 255 270 279 287 293 294 293 293 295 296 297 302 302 297 293 292 290 292 294 294 294 296 297 298 299 300 302 304 305
147 133 137 143 147 147 149 154 161 169 176 189 215 241 257 269 278 284 288 291 291 293 296 297 295 297 303 300 295 292 289 287 290 293 294 295 297 297 298 299 300 300 302 306
150 155 158 160 160 161 165 170 174 180 194 219 244 264 274 279 282 286 290 292 290 289 291 291 292 296 298 294 292 291 291 291 291 291 291 294 295 296 297 298 298 299 299 302
177 169 168 166 165 165 168 172 180 195 219 242 262 269 273 278 284 290 295 298 296 293 291 292 294 297 295 293 292 291 290 290 290 291 292 293 295 296 297 297 297 298 299 302
147 146 148 153 157 160 167 180 199 225 246 258 265 271 276 279 282 287 292 294 294 295 296 299 300 299 296 294 294 291 289 289 290 290 292 294 296 296 296 296 297 298 299 300
130 132 134 137 141 154 176 201 230 254 263 266 270 275 280 282 286 288 290 287 282 284 291 296 298 296 294 295 295 292 289 288 290 293 295 296 296 297 297 296 296 297 297 298
131 132 136 144 158 185 213 235 251 265 272 270 269 274 281 286 288 287 287 289 290 292 295 295 295 293 296 297 297 292 290 291 292 294 295 296 296 296 296 296 296 296 296 297
134 140 151 169 205 245 258 259 260 267 274 275 274 275 279 284 286 285 276 276 287 294 297 294 293 293 298 299 296 293 292 292 293 293 293 294 294 294 295 296 296 296 296 296
147 170 206 233 250 267 275 271 266 268 271 273 276 278 280 283 286 286 289 289 292 296 298 292 293 297 301 301 295 293 293 293 293 293 293 293 292 292 293 295 295 295 296 296
205 234 249 261 265 266 272 276 275 272 271 274 272 271 276 283 283 278 279 289 295 296 295 293 296 298 302 299 295 293 291 292 292 292 292 292 291 292 292 293 294 295 294 295
247 257 259 260 264 268 274 282 283 280 278 277 278 278 274 271 277 287 290 292 295 296 295 295 297 299 300 294 293 291 290 289 289 292 293 294 293 293 292 292 293 294 294 294
260 264 265 263 264 272 278 279 280 283 286 287 287 287 286 283 283 286 288 291 292 294 295 294 296 297 294 293 292 291 291 292 292 293 292 293 292 292 292 293 294 293 293 292
268 268 270 273 271 267 269 272 276 281 283 285 289 292 291 290 288 290 292 293 294 293 294 294 294 294 294 293 293 293 292 291 292 292 293 292 292 292 292 292 292 292 292 291
Height
1487 1491 1493 1492 1494 1499 1498 1490 1489 1482 1481 1479 1483 1487 1491 1494 1497 1500 1502 1505 1507 1509 1510 1510 1510 1510 1509 1507 1506 1504 1502 1499 1496 1492 1489 1484 1480 1475 1470 1465 1459 1454 1448 1442
1491 1494 1494 1494 1490 1490 1491 1487 1483 1480 1477 1475 1480 1484 1488 1491 1493 1496 1499 1502 1504 1505 1506 1507 1507 1506 1505 1503 1502 1499 1497 1494 1490 1486 1482 1478 1473 1468 1462 1456 1451 1445 1439 1432
1485 1494 1495 1488 1479 1481 1481 1478 1477 1475 1471 1475 1480 1482 1483 1486 1490 1493 1496 1498 1501 1502 1503 1503 1503 1502 1500 1499 1497 1494 1491 1488 1484 1480 1475 1471 1465 1460 1454 1448 1442 1436 1430 1423
1485 1493 1492 1467 1470 1471 1471 1469 1470 1470 1471 1475 1477 1479 1482 1485 1488 1490 1493 1496 1498 1499 1499 1499 1499 1498 1496 1494 1492 1489 1486 1482 1478 1473 1468 1463 1458 1452 1446 1440 1434 1427 1420 1414
1487 1482 1471 1466 1469 1470 1470 1465 1464 1466 1469 1474 1477 1479 1482 1484 1486 1488 1491 1493 1495 1495 1496 1495 1495 1493 1492 1489 1487 1484 1480 1476 1472 1467 1461 1455 1450 1444 1438 1431 1425 1418 1412 1405
1484 1482 1473 1458 1464 1466 1468 1463 1461 1463 1466 1471 1475 1476 1478 1481 1484 1486 1488 1490 1491 1492 1492 1492 1491 1489 1487 1484 1481 1478 1474 1469 1465 1460 1454 1448 1442 1436 1430 1423 1416 1409 1402 1396
1474 1472 1458 1458 1464 1466 1467 1456 1459 1460 1464 1468 1471 1472 1476 1479 1482 1484 1486 1488 1488 1489 1488 1488 1486 1484 1481 1479 1475 1471 1467 1462 1457 1452 1447 1441 1434 1428 1421 1415 1407 1401 1394 1388
1466 1467 1460 1458 1462 1460 1455 1457 1457 1460 1463 1467 1470 1472 1474 1477 1480 1482 1484 1485 1485 1485 1485 1483 1481 1479 1476 1472 1469 1464 1460 1455 1450 1445 1439 1432 1426 1420 1414 1407 1400 1393 1386 1380
1452 1450 1450 1452 1453 1453 1454 1456 1457 1459 1462 1465 1468 1471 1473 1476 1478 1480 1481 1482 1482 1481 1480 1478 1476 1473 1470 1466 1461 1457 1452 1447 1442 1437 1431 1425 1419 1412 1406 1400 1393 1386 1380 1373
1450 1448 1449 1450 1451 1451 1453 1455 1456 1458 1461 1464 1467 1469 1472 1474 1476 1477 1478 1478 1478 1477 1475 1473 1471 1467 1463 1459 1454 1449 1444 1439 1434 1428 1423 1417 1411 1405 1399 1393 1386 1380 1373 1367
1444 1446 1448 1447 1448 1449 1451 1453 1456 1458 1461 1463 1465 1468 1470 1472 1473 1474 1475 1474 1473 1472 1469 1467 1464 1460 1457 1452 1447 1442 1437 1432 1426 1421 1415 1409 1403 1398 1392 1386 1381 1374 1367 1361
1437 1439 1441 1442 1443 1446 1449 1451 1454 1457 1459 1462 1464 1466 1468 1469 1470 1471 1471 1470 1468 1466 1464 1460 1457 1453 1450 1445 1440 1434 1429 1424 1419 1413 1408 1402 1395 1389 1383 1378 1372 1367 1361 1355
1435 1436 1438 1439 1442 1444 1447 1450 1453 1456 1458 1460 1462 1464 1466 1467 1467 1467 1466 1465 1463 1460 1457 1454 1450 1446 1442 1437 1432 1427 1422 1417 1412 1406 1401 1395 1388 1381 1373 1368 1363 1358 1352 1346
1433 1434 1436 1438 1440 1443 1446 1449 1452 1454 1457 1459 1460 1462 1463 1463 1463 1463 1461 1460 1457 1454 1450 1447 1442 1438 1434 1430 1425 1420 1415 1410 1405 1399 1394 1388 1382 1375 1368 1361 1354 1348 1343 1338
1430 1432 1434 1436 1439 1442 1445 1447 1450 1452 1455 1457 1458 1459 1459 1459 1459 1458 1456 1453 1450 1447 1443 1440 1435 1431 1427 1422 1417 1412 1407 1403 1398 1392 1387 1381 1375 1369 1363 1356 1349 1342 1335 1330
1428 1430 1432 1435 1437 1440 1443 1446 1448 1451 1452 1454 1455 1456 1456 1455 1453 1452 1450 1447 1444 1440 1436 1432 1427 1423 1419 1414 1409 1404 1400 1395 1390 1385 1379 1374 1368 1362 1356 1350 1343 1336 1330 1325
1425 1428 1431 1433 1436 1439 1442 1444 1446 1448 1450 1451 1452 1452 1451 1449 1448 1446 1443 1441 1437 1433 1429 1424 1420 1415 1411 1407 1402 1397 1392 1387 1382 1377 1372 1367 1361 1355 1349 1343 1337 1331 1325 1319
1423 1426 1429 1431 1434 1437 1440 1442 1444 1446 1447 1448 1447 1447 1445 1444 1441 1439 1436 1433 1429 1425 1421 1417 1412 1407 1403 1399 1395 1390 1385 1380 1375 1370 1365 1360 1354 1348 1343 1336 1330 1324 1318 1313
1422 1425 1428 1431 1434 1436 1438 1441 1442 1443 1444 1443 1443 1441 1440 1437 1435 1432 1428 1425 1420 1416 1412 1409 1404 1400 1395 1391 1387 1382 1377 1372 1367 1362 1357 1352 1347 1341 1335 1329 1324 1318 1312 1307
1422 1425 1428 1431 1433 1435 1437 1438 1439 1439 1439 1438 1437 1435 1433 1431 1428 1424 1420 1416 1413 1409 1404 1400 1395 1391 1387 1383 1379 1374 1370 1365 1360 1355 1350 1344 1339 1333 1328 1322 1317 1311 1306 1301
1423 1425 1428 1430 1432 1434 1435 1435 1435 1435 1434 1433 1431 1428 1426 1423 1420 1416 1412 1407 1404 1401 1396 1392 1387 1383 1379 1375 1371 1366 1362 1357 1352 1347 1342 1336 1331 1325 1320 1315 1310 1305 1300 1295
1423 1425 1427 1429 1430 1431 1431 1431 1431 1429 1428 1426 1424 1421 1418 1415 1411 1408 1404 1400 1396 1392 1388 1383 1379 1375 1372 1367 1363 1358 1354 1349 1344 1339 1334 1328 1323 1318 1312 1308 1303 1298 1293 1288
1423 1425 1426 1427 1427 1427 1427 1426 1425 1423 1421 1419 1417 1414 1411 1407 1403 1399 1395 1391 1388 1384 1379 1375 1371 1367 1363 1359 1354 1349 1345 1340 1335 1331 1326 1321 1316 1310 1305 1300 1296 1291 1286 1282
1422 1423 1423 1423 1423 1422 1421 1420 1419 1416 1414 1411 1409 1406 1403 1398 1394 1391 1387 1382 1379 1375 1370 1366 1362 1358 1354 1350 1345 1340 1336 1331 1327 1322 1318 1313 1308 1303 1298 1293 1289 1284 1279 1275
1419 1419 1419 1419 1418 1416 1415 1413 1411 1409 1406 1403 1400 1397 1394 1390 1386 1382 1378 1374 1370 1365 1361 1356 1353 1349 1345 1340 1336 1332 1327 1323 1319 1314 1310 1305 1300 1295 1291 1286 1282 1277 1273 1268
1415 1415 1414 1413 1412 1411 1408 1406 1403 1401 1398 1394 1391 1389 1386 1382 1378 1374 1369 1365 1361 1356 1352 1348 1344 1340 1336 1331 1327 1323 1319 1314 1310 1306 1301 1297 1292 1288 1283 1279 1275 1270 1266 1262
1411 1410 1409 1407 1406 1404 1401 1398 1396 1393 1390 1386 1382 1379 1376 1373 1369 1365 1360 1356 1352 1347 1343 1339 1335 1331 1327 1322 1318 1314 1310 1306 1302 1298 1293 1289 1284 1280 1276 1272 1268 1264 1260 1256